Location: La Fredeussais
(48.1780°N, 1.3980°W)
Time: 07:23:16
(UTC+00:00)

ITUPSAT 1 - Pass Details

Date: 25 October 2021
Orbit: 702 x 712 km, 98.6° (Epoch: 07 December)

Event Time Altitude Azimuth Distance (km) Brightness Sun altitude
Rises 05:40:01 0° 131° (SE) 3,083 ? -10.6°
Reaches altitude 10° 05:42:32 10° 119° (ESE) 2,168 ? -10.2°
Maximum altitude 05:46:29 27° 63° (ENE) 1,348 ? -9.6°
Drops below altitude 10° 05:50:26 10° 7° (N) 2,180 ? -8.9°
Sets 05:52:59 0° 355° (N) 3,103 ? -8.5°
